Terug naar catalogus

DELTA 2 DEB

LostHEO
NORAD 38674·DEBRIS·🇺🇸 United States

Gelanceerd Sep 25, 2006 vanaf Cape Canaveral Space Force Station

Loading…

Volgende Passages (komende 24 uur)

TLE

VerouderdSource: Space-Track

Epoch: Jul 18, 2026, 11:02 UTC

1 38674U 06042D   26199.46015789  .00005056  00000-0  14042-3 0  9997
2 38674  39.9099 254.7858 4053824 181.2718 177.3604  7.40594769  7356

Volg DELTA 2 DEB in realtime met AllMySat

Download on the App Store